Lexington Weather

Lexington, Massachusetts, USA

73°F
8/7/2020 11:39am 
  • Lexington Conditions: Clear
  • Temperature: 73.2°F / 22.9°CWarmer 2.3°F than last hour.
  • Dew Point: 63.7°FIncreased 0.7°Fsince last hour.
  • Relative Humidity: 72%Decreased 4.0% since last hour.
  • Wind: Calm, 10-min avg: Calm, gust: 2 mph
  • Barometer: 30.13 inFalling 0.02  inHg/hr Falling Slowly
  • Visibility: 10 miles
  • Rain Today: 0.00 in
  •   

Regional Weather Roundup
for Boston / Norton, MA

        
000
ASUS41 KBOX 011405
RWRBOX

REGIONAL WEATHER ROUNDUP
NATIONAL WEATHER SERVICE BOSTON/NORTON MA
1000 AM EDT SAT AUG 01 2020

NOTE:  "FAIR" INDICATES FEW OR NO CLOUDS BELOW 12,000 FEET WITH NO 
SIGNIFICANT WEATHER AND/OR OBSTRUCTIONS TO VISIBILITY.

MAZALL-011500-
EASTERN MASSACHUSETTS
  
CITY           SKY/WX    TMP DP  RH WIND       PRES   REMARKS
BOSTON         MOSUNNY   79  61  53 E6        29.94S                  
BEVERLY        SUNNY     79  61  53 E7        29.94R                  
LAWRENCE       SUNNY     79  63  57 VRB3      29.96S                  
BEDFORD        SUNNY     81  62  52 E7        29.93S                  
BLUE HILL      NOT AVBL                                               
NORWOOD        SUNNY     80  64  58 VRB3      29.94R                  
MARSHFIELD     SUNNY     81  66  61 VRB5      29.93S                  
PLYMOUTH       SUNNY     81  65  58 VRB5      29.93S                  
TAUNTON        SUNNY     82  69  64 VRB3      29.92S                  
NEW BEDFORD    SUNNY     83  67  58 CALM      29.92S                  
$$

MAZALL-011500-
CAPE COD AND THE ISLANDS
  
CITY           SKY/WX    TMP DP  RH WIND       PRES   REMARKS
FALMOUTH       SUNNY     81  63  54 N7        29.93S                  
HYANNIS        SUNNY     81  66  60 N7        29.92R                  
CHATHAM        SUNNY     83  61  47 CALM      29.93S                  
PROVINCETOWN   SUNNY     76  69  79 N8        29.94R                  
NANTUCKET      SUNNY     80  66  62 N9        29.93R                  
MARTHAS VNYRD  SUNNY     82  60  47 NE9       29.92S                  
$$
 
MAZALL-011500-
CENTRAL AND WESTERN MASSACHUSETTS
  
CITY           SKY/WX    TMP DP  RH WIND       PRES   REMARKS
WORCESTER      SUNNY     78  61  55 VRB5      29.98S                  
FITCHBURG      SUNNY     81  59  47 NE7       29.96S                  
ORANGE         SUNNY     79  60  52 NE6       29.98S                  
SPRINGFIELD    MOSUNNY   78  62  58 CALM      29.95S                  
WESTFIELD      SUNNY     79  62  56 VRB6      29.97R                  
NORTH ADAMS    SUNNY     75  58  55 CALM      29.99R                  
PITTSFIELD     SUNNY     77  61  57 VRB3      29.99R                  
$$
 
RIZALL-011500-
RHODE ISLAND
  
CITY           SKY/WX    TMP DP  RH WIND       PRES   REMARKS
PROVIDENCE     MOSUNNY   82  67  60 NW5       29.93S                  
NEWPORT        SUNNY     81  70  69 W5        29.93S                  
BLOCK ISLAND   SUNNY     78  69  73 N5        29.95R                  
SMITHFIELD     SUNNY     80  67  64 VRB7      29.96R                  
WESTERLY       SUNNY     83  68  60 VRB3      29.94R                  
$$
 
CTZALL-011500-
CONNECTICUT
  
CITY           SKY/WX    TMP DP  RH WIND       PRES   REMARKS
BRADLEY INTL   MOSUNNY   81  60  48 VRB6      29.96R                  
HARTFORD       SUNNY     81  62  52 N6        29.95S                  
BRIDGEPORT     SUNNY     81  65  58 VRB3      29.94R                  
DANBURY        SUNNY     79  63  57 NE6       29.98R                  
GROTON         SUNNY     82  67  60 N7        29.93R                  
NEW HAVEN      MOSUNNY   82  65  56 N8        29.94R                  
CHESTER        NOT AVBL                                               
MERIDEN        SUNNY     83  60  45 N6        29.95S                  
WILLIMANTIC    SUNNY     80  65  59 N3        29.95S                  
OXFORD         SUNNY     77  64  64 VRB7      29.99R                  
$$

MEZ002-015-021-024-NHZ003-005-008-011-012-014-VTZ005-008-011500-
NORTHERN NEW ENGLAND
  
CITY           SKY/WX    TMP DP  RH WIND       PRES   REMARKS
PORTLAND ME    SUNNY     81  61  50 N8        29.93                   
BANGOR ME      MOSUNNY   76  62  62 NE5       29.93R                  
CONCORD NH     SUNNY     78  62  57 NW5       29.95F                  
MANCHESTER NH  MOSUNNY   81  61  50 VRB6      29.94R                  
NASHUA NH      SUNNY     78  64  61 N5        29.96R                  
PORTSMOUTH NH  MOSUNNY   80  59  48 NW3       29.93R                  
JAFFREY NH     SUNNY     76  58  53 VRB3      29.99S                  
KEENE NH       SUNNY     77  64  64 CALM      29.98S                  
BURLINGTON VT  MOSUNNY   78  61  55 VRB5      29.97S                  
MT. WASHINGTON PTSUNNY   54  43  66 N8          N/A                   
$$

NYZ052-076-011500-
EASTERN NEW YORK
  
CITY           SKY/WX    TMP DP  RH WIND       PRES   REMARKS
ALBANY         MOSUNNY   74  63  68 CALM      29.98S                  
NEW YORK CITY  MOSUNNY   80  63  55 NE6       29.94S                  
$$
 
ANZALL-011500-
MARINE OBSERVATIONS
  
STATION/POSITION TIME  TEMP    WIND        PRES    VSBY  WAVE
                       AIR SEA DIR/SP/G                  HT/PER
                 (UTC) (F)     (DEG/KT/KT) (MB)    (MI)  (FT/S)
BOSTON BUOY      1350   72 73  340/  4/  6 1012.3R         1/ 9
BUZZARDS BAY     1300           CALM  /  1 1014.3R
NANTUCKET SOUND  1340      77   10/  8/ 10   N/A
MASS BAY-STELLWA 1304   71      40/  8/ 10 1011.1R  1 7/8  2/ 8
ISLE OF SHOALS   1300   71      10/  8/  9 1013.1R
S OF BLOCK IS    1326      73                N/A           3/10
$$

......................KEY.........................
  SKY/WX - SKY CONDITION/PRESENT WEATHER
  TMP    - TEMPERATURE IN FAHRENHEIT
  DWPT   - DEWPOINT IN FAHRENHEIT
  RH     - RELATIVE HUMIDITY IN PERCENT
  WIND   - DIRECTION AND SPEED IN MPH
  PRES   - MEAN SEA LEVEL PRESSURE IN INCHES OF HG
  WCI    - WIND CHILL INDEX
  VSB    - VISIBILITY IN MILES
  HX     - HEAT INDEX
  TC     - TEMPERATURE IN CELSIUS
  VRB    - VARIABLE WIND DIRECTION
  N/A    - NOT AVAILABLE
  
      

Other recent Regional Weather Roundups

Fri Aug 7, 11:04am

Fri Aug 7, 10:04am

Fri Aug 7, 9:04am

Fri Aug 7, 8:04am

Fri Aug 7, 7:04am

Fri Aug 7, 6:04am

Fri Aug 7, 5:04am

Fri Aug 7, 4:04am

Fri Aug 7, 3:04am

Fri Aug 7, 2:04am

Fri Aug 7, 1:05am

Fri Aug 7, 12:04am

Thu Aug 6, 11:04pm

Thu Aug 6, 10:04pm

Thu Aug 6, 9:04pm

Thu Aug 6, 8:04pm

Thu Aug 6, 7:04pm

Thu Aug 6, 6:04pm

Thu Aug 6, 5:04pm

Thu Aug 6, 4:05pm

Thu Aug 6, 3:04pm

Thu Aug 6, 2:05pm

Thu Aug 6, 1:04pm

Thu Aug 6, 12:04pm

Thu Aug 6, 11:04am

Thu Aug 6, 10:04am

Thu Aug 6, 9:04am

Thu Aug 6, 8:04am

Thu Aug 6, 7:04am

Thu Aug 6, 6:04am

Thu Aug 6, 5:04am

Thu Aug 6, 4:04am

Thu Aug 6, 3:04am

Thu Aug 6, 2:05am

Thu Aug 6, 1:04am

Thu Aug 6, 12:04am

Wed Aug 5, 11:04pm

Wed Aug 5, 10:04pm

Wed Aug 5, 9:04pm

Wed Aug 5, 8:05pm

Wed Aug 5, 7:04pm

Wed Aug 5, 6:04pm

Wed Aug 5, 5:04pm

Wed Aug 5, 4:05pm

Wed Aug 5, 3:04pm

Wed Aug 5, 2:04pm

Wed Aug 5, 1:04pm

Wed Aug 5, 12:04pm

Wed Aug 5, 11:04am

Wed Aug 5, 10:04am

Wed Aug 5, 9:04am

Wed Aug 5, 8:04am

Wed Aug 5, 7:04am

Wed Aug 5, 6:04am

Wed Aug 5, 5:04am

Wed Aug 5, 4:04am

Wed Aug 5, 3:04am

Wed Aug 5, 2:05am

Wed Aug 5, 1:04am

Wed Aug 5, 12:05am

Tue Aug 4, 11:05pm

Tue Aug 4, 10:05pm

Tue Aug 4, 9:04pm

Tue Aug 4, 8:04pm

Tue Aug 4, 7:05pm

Tue Aug 4, 6:05pm

Tue Aug 4, 5:05pm

Tue Aug 4, 4:05pm

Tue Aug 4, 3:04pm

Tue Aug 4, 2:05pm

Tue Aug 4, 1:04pm

Tue Aug 4, 12:05pm

Tue Aug 4, 11:04am

Tue Aug 4, 10:04am

Tue Aug 4, 9:04am

Tue Aug 4, 8:04am

Tue Aug 4, 7:04am

Tue Aug 4, 6:04am

Tue Aug 4, 5:04am

Tue Aug 4, 4:04am

Tue Aug 4, 3:04am

Tue Aug 4, 2:04am

Tue Aug 4, 1:04am

Tue Aug 4, 12:04am

Mon Aug 3, 11:04pm

Mon Aug 3, 10:04pm

Mon Aug 3, 9:04pm

Mon Aug 3, 8:05pm

Mon Aug 3, 7:04pm

Mon Aug 3, 6:04pm

Mon Aug 3, 5:04pm

Mon Aug 3, 4:05pm

Mon Aug 3, 3:04pm

Mon Aug 3, 2:04pm

Mon Aug 3, 1:04pm

Mon Aug 3, 12:05pm

Mon Aug 3, 11:04am

Mon Aug 3, 10:04am

Mon Aug 3, 9:05am

Mon Aug 3, 8:04am

Mon Aug 3, 7:04am

Mon Aug 3, 6:04am

Mon Aug 3, 5:04am

Mon Aug 3, 4:04am

Mon Aug 3, 3:04am

Mon Aug 3, 2:04am

Mon Aug 3, 1:04am

Mon Aug 3, 12:05am

Sun Aug 2, 11:04pm

Sun Aug 2, 10:04pm

Sun Aug 2, 9:04pm

Sun Aug 2, 8:04pm

Sun Aug 2, 7:04pm

Sun Aug 2, 6:04pm

Sun Aug 2, 5:04pm

Sun Aug 2, 4:05pm

Sun Aug 2, 3:04pm

Sun Aug 2, 2:05pm

Sun Aug 2, 1:04pm

Sun Aug 2, 12:04pm

Sun Aug 2, 11:04am

Sun Aug 2, 10:04am

Sun Aug 2, 9:05am

Sun Aug 2, 8:05am

Sun Aug 2, 7:04am

Sun Aug 2, 6:04am

Sun Aug 2, 5:04am

Sun Aug 2, 4:05am

Sun Aug 2, 3:04am

Sun Aug 2, 2:04am

Sun Aug 2, 1:04am

Sun Aug 2, 12:05am

Sat Aug 1, 11:04pm

Sat Aug 1, 10:04pm

Sat Aug 1, 9:04pm

Sat Aug 1, 8:05pm

Sat Aug 1, 7:04pm

Sat Aug 1, 6:04pm

Sat Aug 1, 5:05pm

Sat Aug 1, 4:05pm

Sat Aug 1, 3:04pm

Sat Aug 1, 2:04pm

Sat Aug 1, 1:04pm

Sat Aug 1, 12:04pm

Sat Aug 1, 11:05am

Sat Aug 1, 9:04am

Sat Aug 1, 8:04am

Sat Aug 1, 7:04am

Sat Aug 1, 6:04am

Sat Aug 1, 5:04am

Sat Aug 1, 4:05am

Sat Aug 1, 3:04am

Sat Aug 1, 2:04am

Sat Aug 1, 1:04am

Sat Aug 1, 12:05am

Fri Jul 31, 11:05pm

Fri Jul 31, 10:04pm

Fri Jul 31, 9:04pm

Fri Jul 31, 8:05pm

Fri Jul 31, 7:05pm

Fri Jul 31, 6:04pm

Fri Jul 31, 5:04pm

Fri Jul 31, 4:05pm

Fri Jul 31, 3:04pm

Fri Jul 31, 2:05pm

Fri Jul 31, 1:04pm

Fri Jul 31, 12:04pm

Meta data:

ID: c0abe526-4e28-4c4a-b8b1-fa8cf2b042db
Link: https://api.weather.gov/products/c0abe526-4e28-4c4a-b8b1-fa8cf2b042db